DW0805 Weather Reports


time (UTC)temp
C
wind
direction
speed
KPH
gust
KPH
rain 1hr
cm
rain 24hr
cm
rain mn
cm
humidity
%
barometer
mb
20260831230516 16 230 6.4 12.9 0.00 0.33 0.00 93 1007.3
20260831224515 16 202 4.8 11.3 0.00 0.33 0.00 93 1007.3
20260831222515 16 230 4.8 14.5 0.00 0.33 0.00 94 1007.3
20260831220515 16 224 3.2 9.7 0.00 0.33 0.00 94 1007.4
20260831212515 15 228 6.4 11.3 0.03 0.33 0.33 94 1007.1
20260831203516 15 212 0.0 9.7 0.00 0.33 0.33 93 1007.0
20260831202516 15 206 1.6 9.7 0.00 0.33 0.33 93 1006.8
20260831201516 15 206 1.6 8.0 0.00 0.33 0.33 93 1006.8
20260831200517 15 226 3.2 8.0 0.00 0.33 0.33 93 1006.8
20260831195516 15 227 3.2 8.0 0.00 0.33 0.33 93 1006.9
20260831193515 16 200 3.2 9.7 0.00 0.33 0.33 92 1006.8
20260831191516 16 200 3.2 9.7 0.00 0.33 0.33 92 1006.8
20260831185515 16 139 1.6 8.0 0.00 0.33 0.33 92 1006.4
20260831183515 16 197 0.0 3.2 0.00 0.33 0.33 91 1006.2
20260831170514 17 225 4.8 11.3 0.00 0.36 0.33 89 1006.0
20260831165515 17 292 8.0 12.9 0.00 0.36 0.33 89 1006.1
20260831164515 17 203 8.0 11.3 0.00 0.36 0.33 90 1006.1
20260831162515 17 235 8.0 12.9 0.05 0.36 0.33 90 1006.2
20260831161515 17 269 4.8 9.7 0.05 0.36 0.33 90 1006.1
20260831160514 17 243 4.8 11.3 0.05 0.36 0.33 90 1006.1
20260831150514 18 209 11.3 25.7 0.05 0.33 0.28 87 1006.1
20260831145514 18 221 14.5 20.9 0.03 0.30 0.25 84 1006.1
20260831144514 19 213 8.0 20.9 0.00 0.28 0.23 82 1006.0
20260831143514 19 242 14.5 20.9 0.00 0.28 0.23 81 1006.1
20260831141514 20 230 12.9 20.9 0.00 0.28 0.23 81 1006.1
20260831140514 20 212 11.3 19.3 0.00 0.28 0.23 82 1006.1
20260831135514 20 218 9.7 19.3 0.00 0.28 0.23 82 1005.9
20260831134514 20 225 11.3 22.5 0.00 0.28 0.23 81 1005.8
20260831133515 20 221 11.3 20.9 0.00 0.28 0.23 82 1005.9
20260831132516 20 219 12.9 22.5 0.00 0.28 0.23 83 1006.0
20260831131514 20 221 8.0 19.3 0.00 0.28 0.23 83 1005.9
20260831130514 20 214 9.7 22.5 0.00 0.30 0.23 84 1005.9
20260831125515 21 272 11.3 19.3 0.00 0.30 0.23 84 1006.0
20260831123514 20 187 8.0 14.5 0.00 0.30 0.23 88 1005.8
20260831115514 20 194 3.2 12.9 0.03 0.51 0.23 89 1006.2
20260831113514 18 173 4.8 12.9 0.15 0.51 0.23 90 1006.3
20260831110515 17 139 3.2 9.7 0.23 0.51 0.23 92 1006.4
20260831105515 17 139 3.2 9.7 0.20 0.51 0.23 92 1006.5
20260831104514 17 190 9.7 19.3 0.18 0.48 0.20 91 1006.6
20260831103515 17 192 9.7 14.5 0.08 0.38 0.10 90 1006.2
20260831102515 18 188 11.3 19.3 0.03 0.33 0.05 90 1006.4
20260831100514 18 158 3.2 14.5 0.00 0.30 0.03 90 1006.5
20260831094514 18 143 8.0 16.1 0.00 0.30 0.03 93 1006.6
20260831092515 17 139 6.4 12.9 0.00 0.30 0.03 94 1006.8
20260831091514 17 166 8.0 14.5 0.00 0.30 0.03 94 1007.0
20260831090515 17 162 8.0 16.1 0.00 0.30 0.03 94 1007.0
20260831085515 17 110 4.8 11.3 0.00 0.30 0.03 94 1007.2
20260831084514 17 154 4.8 12.9 0.03 0.30 0.03 94 1007.2
20260831083515 17 138 8.0 16.1 0.03 0.33 0.03 94 1007.2
20260831081515 16 178 4.8 19.3 0.03 0.33 0.03 93 1007.3
20260831080515 16 135 8.0 19.3 0.03 0.33 0.03 93 1007.3
20260831075514 16 119 6.4 14.5 0.03 0.33 0.03 93 1007.2
20260831072515 16 134 3.2 9.7 0.00 0.30 0.00 93 1007.5
20260831071516 16 157 4.8 9.7 0.00 0.30 0.00 93 1007.5
20260831063514 16 161 1.6 9.7 0.00 0.30 0.00 93 1007.3
20260831062514 16 168 1.6 9.7 0.00 0.30 0.00 93 1007.5
20260831060515 16 185 1.6 4.8 0.00 0.33 0.00 93 1007.6
20260831055514 16 148 3.2 8.0 0.00 0.36 0.00 93 1007.5
20260831053514 16 203 3.2 8.0 0.00 0.43 0.00 94 1007.7
20260831043516 15 202 4.8 11.3 0.00 0.43 0.00 94 1007.9
20260831033515 15 222 8.0 14.5 0.00 0.43 0.00 94 1007.7
20260831032515 16 209 8.0 16.1 0.00 0.43 0.00 94 1007.9
20260831031515 16 195 11.3 14.5 0.00 0.43 0.00 93 1008.1
20260831030515 16 213 8.0 14.5 0.00 0.43 0.00 93 1008.2
20260831025514 16 230 8.0 12.9 0.00 0.43 0.00 93 1008.2
20260831022515 16 231 9.7 16.1 0.00 0.43 0.00 93 1008.2
20260831021515 16 231 6.4 16.1 0.00 0.43 0.00 93 1008.2
20260831015515 16 230 8.0 16.1 0.00 0.43 0.00 93 1008.3
20260831012514 16 220 8.0 19.3 0.00 0.43 0.00 93 1008.3
20260831010515 16 231 4.8 9.7 0.00 0.43 0.00 93 1008.2
20260831005515 15 226 4.8 9.7 0.00 0.43 0.00 93 1008.2
20260831001515 15 199 4.8 9.7 0.00 0.43 0.00 93 1008.3
20260831000515 15 205 3.2 8.0 0.00 0.43 0.00 93 1008.3
20260830233514 15 226 4.8 8.0 0.00 0.43 0.00 92 1008.1
20260830232515 15 226 3.2 4.8 0.00 0.43 0.00 92 1008.1